N7MLR Weather Reports


Display with metric or nautical units.
time (UTC)temp
F
wind
direction
speed
MPH
gust
MPH
rain 1hr
in
rain 24hr
in
rain mn
in
humidity
%
barometer
mb
20260901184903 98 210 2.0 2.0 0.00 0.00 0.00 42 1015.6
20260901184359 97 231 2.0 2.0 0.00 0.00 0.00 44 1015.6
20260901183854 97 196 1.0 2.0 0.00 0.00 0.00 45 1015.6
20260901183353 96 189 1.0 1.0 0.00 0.00 0.00 45 1015.5
20260901182849 96 235 1.0 1.0 0.00 0.00 0.00 45 1016.0
20260901182350 96 232 1.0 2.0 0.00 0.00 0.00 45 1015.9
20260901181844 96 219 2.0 2.0 0.00 0.00 0.00 44 1016.1
20260901181339 96 214 2.0 2.0 0.00 0.00 0.00 45 1016.0
20260901180838 95 209 0.0 1.0 0.00 0.00 0.00 46 1016.1
20260901180337 95 194 4.0 6.0 0.00 0.00 0.00 45 1016.3
20260901175836 96 209 2.0 2.0 0.00 0.00 0.00 46 1016.3
20260901175331 96 249 2.0 2.0 0.00 0.00 0.00 46 1016.3
20260901174826 97 234 3.0 5.0 0.00 0.00 0.00 46 1016.4
20260901174322 93 206 1.0 2.0 0.00 0.00 0.00 48 1016.4
20260901173817 96 195 2.0 2.0 0.00 0.00 0.00 47 1016.6
20260901173312 94 222 0.0 1.0 0.00 0.00 0.00 46 1016.7
20260901172809 94 196 3.0 3.0 0.00 0.00 0.00 48 1016.9
20260901172307 94 208 1.0 1.0 0.00 0.00 0.00 47 1016.5
20260901171806 93 204 4.0 6.0 0.00 0.00 0.00 51 1016.9
20260901171305 93 197 1.0 1.0 0.00 0.00 0.00 50 1017.0
20260901170804 94 207 0.0 1.0 0.00 0.00 0.00 50 1016.9
20260901170259 94 228 2.0 3.0 0.00 0.00 0.00 50 1017.0
20260901165757 93 190 3.0 3.0 0.00 0.00 0.00 51 1017.0
20260901165252 91 198 0.0 1.0 0.00 0.00 0.00 51 1017.2
20260901164749 92 193 1.0 1.0 0.00 0.00 0.00 50 1016.9
20260901164244 93 219 1.0 1.0 0.00 0.00 0.00 51 1017.1
20260901163739 93 209 0.0 1.0 0.00 0.00 0.00 48 1017.1
20260901163238 94 213 2.0 2.0 0.00 0.00 0.00 49 1017.4
20260901162734 93 214 0.0 1.0 0.00 0.00 0.00 47 1017.3
20260901162233 93 206 1.0 2.0 0.00 0.00 0.00 50 1017.5
20260901161732 93 200 0.0 1.0 0.00 0.00 0.00 51 1017.2
20260901161227 91 217 2.0 2.0 0.00 0.00 0.00 51 1017.2
20260901160723 91 205 0.0 1.0 0.00 0.00 0.00 56 1017.2
20260901160218 90 198 0.0 1.0 0.00 0.00 0.00 58 1017.4
20260901155717 90 215 0.0 1.0 0.00 0.00 0.00 56 1017.4
20260901155213 89 228 0.0 1.0 0.00 0.00 0.00 57 1017.4
20260901154708 89 204 1.0 1.0 0.00 0.00 0.00 55 1017.3
20260901154203 88 214 2.0 3.0 0.00 0.00 0.00 58 1017.3
20260901153658 88 254 1.0 1.0 0.00 0.00 0.00 60 1017.4
20260901153157 89 219 0.0 1.0 0.00 0.00 0.00 62 1017.3
20260901152652 88 223 1.0 1.0 0.00 0.00 0.00 64 1017.1
20260901152151 88 225 0.0 1.0 0.00 0.00 0.00 63 1017.2
20260901151647 88 220 0.0 0.0 0.00 0.00 0.00 63 1017.5
20260901151146 87 216 0.0 1.0 0.00 0.00 0.00 63 1017.5
20260901150645 86 206 0.0 1.0 0.00 0.00 0.00 65 1017.5
20260901150143 87 206 0.0 1.0 0.00 0.00 0.00 66 1017.5
20260901145642 86 201 1.0 1.0 0.00 0.00 0.00 66 1017.3
20260901145142 85 202 0.0 1.0 0.00 0.00 0.00 70 1017.3
20260901144637 85 205 1.0 1.0 0.00 0.00 0.00 69 1017.2
20260901144132 86 228 1.0 1.0 0.00 0.00 0.00 68 1017.4
20260901143628 85 232 1.0 1.0 0.00 0.00 0.00 68 1017.4
20260901143124 84 221 0.0 1.0 0.00 0.00 0.00 74 1017.2
20260901142620 84 221 0.0 0.0 0.00 0.00 0.00 77 1017.0
20260901142119 83 221 0.0 1.0 0.00 0.00 0.00 78 1017.2
20260901141614 84 221 1.0 1.0 0.00 0.00 0.00 78 1017.3
20260901141109 82 222 0.0 0.0 0.00 0.00 0.00 81 1017.3
20260901140607 82 224 0.0 0.0 0.00 0.00 0.00 81 1017.4
20260901140106 82 224 0.0 0.0 0.00 0.00 0.00 83 1017.3
20260901135601 82 220 0.0 1.0 0.00 0.00 0.00 82 1017.4
20260901135056 81 198 0.0 0.0 0.00 0.00 0.00 83 1017.5
20260901134553 81 202 0.0 0.0 0.00 0.00 0.00 84 1017.5
20260901134052 81 207 0.0 0.0 0.00 0.00 0.00 84 1017.3
20260901133551 80 206 0.0 1.0 0.00 0.00 0.00 85 1017.3
20260901133050 80 206 0.0 0.0 0.00 0.00 0.00 86 1016.9
20260901132545 78 206 0.0 0.0 0.00 0.00 0.00 88 1017.1
20260901132045 77 206 1.0 1.0 0.00 0.00 0.00 90 1017.1
20260901131539 75 202 0.0 0.0 0.00 0.00 0.00 92 1017.1
20260901131034 75 198 0.0 0.0 0.00 0.00 0.00 94 1017.1
20260901130534 75 198 0.0 0.0 0.00 0.00 0.00 95 1017.2
20260901130033 73 199 0.0 0.0 0.00 0.00 0.00 95 1017.0
20260901125531 72 200 0.0 0.0 0.00 0.00 0.00 95 1016.9
20260901125027 71 200 0.0 0.0 0.00 0.00 0.00 95 1016.5
20260901124521 71 200 0.0 0.0 0.00 0.00 0.00 95 1016.6
20260901124021 72 199 0.0 0.0 0.00 0.00 0.00 95 1016.6
20260901123516 71 198 0.0 0.0 0.00 0.00 0.00 95 1016.6
20260901123015 71 198 0.0 1.0 0.00 0.00 0.00 95 1016.5
20260901111745 72 198 0.0 0.0 0.00 0.00 0.00 90 1016.4
20260901111244 72 198 0.0 0.0 0.00 0.00 0.00 90 1016.4
20260901110743 72 198 0.0 0.0 0.00 0.00 0.00 90 1016.5
20260901110238 73 200 0.0 1.0 0.00 0.00 0.00 90 1016.4
20260901105735 73 201 0.0 0.0 0.00 0.00 0.00 90 1016.5
20260901105234 73 198 1.0 1.0 0.00 0.00 0.00 91 1016.5
20260901104731 72 194 0.0 1.0 0.00 0.00 0.00 92 1016.5
20260901104226 72 195 0.0 1.0 0.00 0.00 0.00 93 1016.4
20260901103725 71 194 1.0 1.0 0.00 0.00 0.00 93 1016.2
20260901103220 71 196 0.0 0.0 0.00 0.00 0.00 93 1016.4
20260901102715 71 196 0.0 0.0 0.00 0.00 0.00 93 1016.5
20260901102214 71 196 0.0 0.0 0.00 0.00 0.00 93 1016.3
20260901101711 71 196 0.0 0.0 0.00 0.00 0.00 93 1016.2
20260901101211 71 196 0.0 0.0 0.00 0.00 0.00 92 1016.3
20260901100705 71 196 0.0 0.0 0.00 0.00 0.00 92 1016.3
20260901100200 72 196 0.0 0.0 0.00 0.00 0.00 92 1016.4
20260901095658 72 196 0.0 0.0 0.00 0.00 0.00 91 1016.3
20260901095156 72 196 0.0 0.0 0.00 0.00 0.00 91 1016.3
20260901094651 72 196 0.0 0.0 0.00 0.00 0.00 91 1016.2
20260901094150 73 196 0.0 0.0 0.00 0.00 0.00 91 1016.2
20260901093645 73 196 0.0 0.0 0.00 0.00 0.00 90 1016.4
20260901093144 73 196 0.0 0.0 0.00 0.00 0.00 89 1016.1
20260901092640 73 196 0.0 0.0 0.00 0.00 0.00 89 1016.4
20260901092136 74 196 0.0 0.0 0.00 0.00 0.00 88 1016.6
20260901091632 74 196 0.0 0.0 0.00 0.00 0.00 87 1016.4
20260901091126 75 196 0.0 0.0 0.00 0.00 0.00 86 1016.5
20260901090621 75 196 0.0 1.0 0.00 0.00 0.00 86 1016.5
20260901090117 75 196 0.0 1.0 0.00 0.00 0.00 86 1016.6
20260901085612 75 197 1.0 1.0 0.00 0.00 0.00 86 1016.6
20260901085108 75 199 0.0 1.0 0.00 0.00 0.00 86 1016.5
20260901084604 75 199 0.0 0.0 0.00 0.00 0.00 87 1016.6
20260901084101 74 198 0.0 1.0 0.00 0.00 0.00 89 1016.6
20260901083600 74 201 0.0 0.0 0.00 0.00 0.00 88 1016.6
20260901083058 74 202 0.0 0.0 0.00 0.00 0.00 88 1016.6
20260901082553 74 201 0.0 0.0 0.00 0.00 0.00 87 1016.6
20260901082049 74 202 0.0 0.0 0.00 0.00 0.00 87 1016.5
20260901081543 74 202 0.0 0.0 0.00 0.00 0.00 86 1016.4
20260901081038 75 201 0.0 0.0 0.00 0.00 0.00 87 1016.4
20260901080537 75 202 0.0 0.0 0.00 0.00 0.00 86 1016.5
20260901080032 75 201 0.0 0.0 0.00 0.00 0.00 85 1016.4
20260901075528 75 202 0.0 0.0 0.00 0.00 0.00 85 1016.4
20260901075027 76 201 0.0 0.0 0.00 0.00 0.00 84 1016.4
20260901074526 76 201 0.0 0.0 0.00 0.00 0.00 83 1016.5
20260901074022 77 201 0.0 0.0 0.00 0.00 0.00 82 1016.6
20260901073518 77 201 0.0 0.0 0.00 0.00 0.00 81 1016.5
20260901073013 78 202 0.0 0.0 0.00 0.00 0.00 80 1016.5
20260901072508 79 202 0.0 1.0 0.00 0.00 0.00 79 1016.5
20260901072003 78 210 0.0 0.0 0.00 0.00 0.00 79 1016.3
20260901071502 79 210 0.0 0.0 0.00 0.00 0.00 78 1016.1
20260901071001 79 202 1.0 1.0 0.00 0.00 0.00 78 1016.5
20260901070457 79 202 1.0 1.0 0.00 0.00 0.00 77 1016.3
20260901065955 80 202 1.0 1.0 0.00 0.00 0.00 76 1016.4
20260901065452 80 210 0.0 1.0 0.00 0.00 0.00 75 1016.3
20260901064946 78 211 0.0 1.0 0.00 0.00 0.00 79 1016.0
20260901064442 78 219 0.0 0.0 0.00 0.00 0.00 79 1016.4
20260901063939 78 219 0.0 0.0 0.00 0.00 0.00 78 1016.4
20260901063436 78 219 0.0 0.0 0.00 0.00 0.00 77 1016.3
20260901062932 79 219 0.0 0.0 0.00 0.00 0.00 76 1016.1
20260901062427 79 204 1.0 1.0 0.00 0.00 0.00 76 1016.2
20260901061923 79 209 0.0 0.0 0.00 0.00 0.00 75 1016.2
20260901061419 80 221 1.0 1.0 0.00 0.00 0.00 75 1016.3
20260901060914 80 220 0.0 0.0 0.00 0.00 0.00 75 1016.2
20260901060409 80 226 1.0 1.0 0.00 0.00 0.00 74 1016.0
20260901055908 81 217 0.0 0.0 0.00 0.00 0.00 73 1016.0
20260901055405 82 223 1.0 2.0 0.00 0.00 0.00 71 1015.9
20260901054901 83 231 1.0 1.0 0.00 0.00 0.00 70 1016.1
20260901054358 83 209 0.0 1.0 0.00 0.00 0.00 69 1015.8
20260901053854 82 242 1.0 1.0 0.00 0.00 0.00 70 1015.8
20260901053349 82 226 3.0 5.0 0.00 0.00 0.00 70 1016.1
20260901052845 82 210 0.0 1.0 0.00 0.00 0.00 70 1015.8
20260901052340 82 220 0.0 0.0 0.00 0.00 0.00 70 1015.9
20260901051838 81 233 1.0 1.0 0.00 0.00 0.00 71 1015.7
20260901051334 81 247 0.0 1.0 0.00 0.00 0.00 72 1015.9
20260901050829 81 246 0.0 1.0 0.00 0.00 0.00 72 1015.7
20260901050324 82 247 1.0 1.0 0.00 0.00 0.00 71 1015.8
20260901045814 82 257 0.0 0.0 0.00 0.00 0.00 70 1015.7
20260901045313 82 285 1.0 1.0 0.00 0.00 0.00 70 1015.9
20260901044809 82 225 1.0 1.0 0.00 0.00 0.00 69 1015.7
20260901044305 83 312 2.0 3.0 0.00 0.00 0.00 69 1015.6
20260901043800 83 129 2.0 2.0 0.00 0.00 0.00 68 1015.8
20260901043256 83 261 1.0 1.0 0.00 0.00 0.00 67 1015.6
20260901042755 85 205 1.0 1.0 0.00 0.00 0.00 65 1015.5
20260901042256 85 216 0.0 1.0 0.00 0.00 0.00 64 1015.6
20260901041751 85 213 1.0 1.0 0.00 0.00 0.00 64 1015.7
20260901041246 84 261 1.0 2.0 0.00 0.00 0.00 65 1015.5
20260901040741 84 213 0.0 1.0 0.00 0.00 0.00 65 1015.6
20260901040240 84 215 0.0 1.0 0.00 0.00 0.00 66 1015.7
20260901035739 84 218 1.0 1.0 0.00 0.00 0.00 66 1015.5
20260901035238 84 219 1.0 1.0 0.00 0.00 0.00 66 1015.3
20260901034737 84 221 0.0 1.0 0.00 0.00 0.00 66 1015.3
20260901034232 84 213 1.0 1.0 0.00 0.00 0.00 66 1015.3
20260901033732 83 204 1.0 1.0 0.00 0.00 0.00 67 1015.4
20260901033231 82 210 1.0 1.0 0.00 0.00 0.00 68 1015.3
20260901032730 82 223 0.0 0.0 0.00 0.00 0.00 69 1015.2
20260901032224 82 199 0.0 0.0 0.00 0.00 0.00 69 1015.1
20260901031720 82 198 0.0 0.0 0.00 0.00 0.00 68 1015.2
20260901031216 82 198 0.0 0.0 0.00 0.00 0.00 68 1015.0
20260901030710 82 198 0.0 0.0 0.00 0.00 0.00 67 1015.0
20260901030205 83 198 0.0 0.0 0.00 0.00 0.00 66 1015.0
20260901025659 84 198 0.0 0.0 0.00 0.00 0.00 65 1014.7
20260901025154 85 198 1.0 1.0 0.00 0.00 0.00 63 1014.8
20260901024654 85 200 0.0 0.0 0.00 0.00 0.00 62 1014.7
20260901024153 85 201 0.0 1.0 0.00 0.00 0.00 62 1014.5
20260901023652 85 204 1.0 1.0 0.00 0.00 0.00 62 1014.5
20260901023147 86 207 1.0 1.0 0.00 0.00 0.00 61 1014.3
20260901022642 86 201 0.0 1.0 0.00 0.00 0.00 60 1014.4
20260901022137 86 204 0.0 1.0 0.00 0.00 0.00 59 1014.3
20260901021633 86 206 1.0 1.0 0.00 0.00 0.00 59 1014.2
20260901021128 86 206 0.0 1.0 0.00 0.00 0.00 58 1014.0
20260901020624 86 206 1.0 1.0 0.00 0.00 0.00 57 1014.1
20260901020119 87 209 0.0 1.0 0.00 0.00 0.00 56 1014.1
20260901015614 87 217 0.0 1.0 0.00 0.00 0.00 56 1013.8
20260901015114 87 215 0.0 0.0 0.00 0.00 0.00 55 1014.1
20260901014608 87 216 0.0 1.0 0.00 0.00 0.00 54 1014.1
20260901014105 86 224 0.0 1.0 0.00 0.00 0.00 55 1014.1
20260901013600 87 202 0.0 0.0 0.00 0.00 0.00 54 1013.6
20260901013056 87 202 1.0 1.0 0.00 0.00 0.00 53 1013.7
20260901012556 88 206 0.0 1.0 0.00 0.00 0.00 53 1013.7
20260901012051 88 201 0.0 1.0 0.00 0.00 0.00 51 1013.6
20260901011548 89 199 0.0 1.0 0.00 0.00 0.00 51 1013.6
20260901011045 89 199 1.0 1.0 0.00 0.00 0.00 50 1013.5
20260901010541 89 201 1.0 1.0 0.00 0.00 0.00 49 1013.7
20260901010039 90 205 0.0 1.0 0.00 0.00 0.00 49 1013.4
20260901005535 91 217 0.0 1.0 0.00 0.00 0.00 48 1013.5
20260901005030 91 207 1.0 1.0 0.00 0.00 0.00 48 1013.6
20260901004529 91 209 1.0 1.0 0.00 0.00 0.00 47 1013.6
20260901004024 92 218 1.0 1.0 0.00 0.00 0.00 47 1013.5
20260901003519 92 227 1.0 1.0 0.00 0.00 0.00 46 1013.6
20260901003018 92 221 0.0 1.0 0.00 0.00 0.00 46 1013.3
20260901002517 92 208 0.0 1.0 0.00 0.00 0.00 46 1013.5
20260901002013 93 202 1.0 2.0 0.00 0.00 0.00 45 1013.4
20260901001507 93 230 2.0 3.0 0.00 0.00 0.00 45 1013.2
20260901001003 93 220 1.0 1.0 0.00 0.00 0.00 45 1013.1
20260901000458 94 210 0.0 1.0 0.00 0.00 0.00 44 1013.2
20260831235956 94 212 1.0 1.0 0.00 0.00 0.00 43 1013.1
20260831235451 94 220 0.0 1.0 0.00 0.00 0.00 43 1013.1
20260831234947 94 243 1.0 2.0 0.00 0.00 0.00 43 1013.2
20260831234441 94 223 0.0 1.0 0.00 0.00 0.00 42 1013.1
20260831233937 95 213 1.0 2.0 0.00 0.00 0.00 42 1013.3
20260831233432 95 348 3.0 5.0 0.00 0.00 0.00 41 1013.3
20260831232927 95 216 0.0 1.0 0.00 0.00 0.00 43 1013.2
20260831232423 95 220 2.0 3.0 0.00 0.00 0.00 43 1013.0
20260831231919 95 227 1.0 2.0 0.00 0.00 0.00 42 1013.2
20260831231415 95 231 2.0 2.0 0.00 0.00 0.00 43 1013.2
20260831230911 96 213 0.0 1.0 0.00 0.00 0.00 43 1013.3
20260831230405 95 220 0.0 1.0 0.00 0.00 0.00 44 1013.2
20260831225859 95 197 1.0 2.0 0.00 0.00 0.00 44 1013.4
20260831225355 95 336 3.0 5.0 0.00 0.00 0.00 44 1013.4
20260831224850 96 216 0.0 1.0 0.00 0.00 0.00 44 1013.4
20260831224345 96 278 1.0 2.0 0.00 0.00 0.00 43 1013.5
20260831223839 95 229 1.0 1.0 0.00 0.00 0.00 43 1013.4
20260831223335 95 231 2.0 3.0 0.00 0.00 0.00 43 1013.2
20260831222832 96 197 1.0 2.0 0.00 0.00 0.00 43 1013.3
20260831222327 96 234 1.0 1.0 0.00 0.00 0.00 44 1013.3
20260831221827 96 224 0.0 1.0 0.00 0.00 0.00 44 1013.5
20260831221323 96 203 0.0 1.0 0.00 0.00 0.00 43 1013.5
20260831220818 96 211 1.0 1.0 0.00 0.00 0.00 44 1014.0
20260831220313 96 219 0.0 1.0 0.00 0.00 0.00 43 1014.1
20260831215808 96 209 1.0 1.0 0.00 0.00 0.00 43 1013.8
20260831215306 97 239 0.0 1.0 0.00 0.00 0.00 42 1013.8
20260831214801 98 317 2.0 5.0 0.00 0.00 0.00 42 1013.8
20260831214258 97 209 0.0 1.0 0.00 0.00 0.00 42 1014.1
20260831213753 97 30 1.0 2.0 0.00 0.00 0.00 43 1014.1
20260831213250 96 253 1.0 2.0 0.00 0.00 0.00 44 1014.1
20260831212750 96 211 1.0 1.0 0.00 0.00 0.00 43 1014.2
20260831212247 96 193 1.0 2.0 0.00 0.00 0.00 43 1014.2
20260831211745 96 285 2.0 2.0 0.00 0.00 0.00 43 1014.2
20260831211240 97 202 2.0 2.0 0.00 0.00 0.00 42 1014.2
20260831210735 97 205 1.0 2.0 0.00 0.00 0.00 43 1014.6
20260831210231 98 212 2.0 3.0 0.00 0.00 0.00 42 1014.6
20260831205730 97 260 1.0 2.0 0.00 0.00 0.00 44 1014.5
20260831205227 97 246 1.0 2.0 0.00 0.00 0.00 42 1014.6
20260831204721 97 165 2.0 2.0 0.00 0.00 0.00 42 1014.9
20260831204220 97 344 1.0 2.0 0.00 0.00 0.00 45 1014.9
20260831203714 97 202 0.0 1.0 0.00 0.00 0.00 44 1015.1
20260831203214 95 211 2.0 3.0 0.00 0.00 0.00 46 1015.1
20260831202712 95 209 1.0 1.0 0.00 0.00 0.00 47 1015.1
20260831202207 94 216 4.0 6.0 0.00 0.00 0.00 48 1015.2
20260831201707 96 223 1.0 1.0 0.00 0.00 0.00 46 1015.2
20260831201201 95 250 4.0 6.0 0.00 0.00 0.00 47 1015.4
20260831200657 96 222 2.0 2.0 0.00 0.00 0.00 47 1015.4
20260831200156 97 198 1.0 1.0 0.00 0.00 0.00 45 1015.5
20260831195652 97 209 1.0 2.0 0.00 0.00 0.00 46 1015.7
20260831195148 95 205 1.0 1.0 0.00 0.00 0.00 48 1015.7
20260831194642 95 235 3.0 5.0 0.00 0.00 0.00 47 1015.7
20260831194138 97 205 3.0 6.0 0.00 0.00 0.00 46 1016.0
20260831193632 97 195 3.0 5.0 0.00 0.00 0.00 46 1016.0
20260831193127 95 218 2.0 2.0 0.00 0.00 0.00 47 1015.9
20260831192622 96 218 0.0 1.0 0.00 0.00 0.00 47 1016.0
20260831192118 95 185 4.0 7.0 0.00 0.00 0.00 47 1016.1
20260831191614 96 240 1.0 1.0 0.00 0.00 0.00 47 1016.1
20260831191109 96 203 3.0 3.0 0.00 0.00 0.00 47 1016.2
20260831190604 95 257 2.0 2.0 0.00 0.00 0.00 49 1016.2
20260831185559 96 162 3.0 5.0 0.00 0.00 0.00 47 1016.1